Regional Weather Roundup
Issued by NWS

Home | Current Version | Previous Version | Text Only | Print | Product List | Glossary On
Versions: 1 2 3 4 5 6 7 8 9 10 11 12 13 14 15 16 17 18 19 20 21 22 23 24 25 26 27 28 29 30 31 32 33 34 35 36 37 38 39 40 41 42 43 44 45 46 47 48 49 50
000
ASUS42 KFFC 231710
RWRGA
WEATHER ROUNDUP FOR GEORGIA
NATIONAL WEATHER SERVICE PEACHTREE CITY GA
1200 PM EST THU FEB 23 2017

NOTE: "FAIR" INDICATES FEW OR NO CLOUDS BELOW 12,000 FEET WITH NO
SIGNIFICANT WEATHER AND/OR OBSTRUCTIONS TO VISIBILITY.

* = USE WITH CAUTION. THE STATIONS MARKED WITH AN ASTERISK MAY NOT
REPORT WEATHER SUCH AS PRECIPITATION, FOG, OR THUNDER AND ARE NOT
QUALITY CONTROLLED BY NWS.

THE REMARK "TC" DENOTES TEMPERATURE READING IN DEGREES CELSIUS.

GAZ001>058-231800-
NORTH GEORGIA

CITY           SKY/WX    TMP DP  RH WIND       PRES   REMARKS
ATLANTA        MOSUNNY   69  57  65 SE8       29.90F
ATHENS         SUNNY     73  54  51 E10       29.90F
CHAMBLEE       SUNNY     70  53  54 VRB6      29.90F
PEACHTREE CITY MOSUNNY   69  57  65 SE9       29.90F
ROME           SUNNY     70  56  61 SE8       29.88F
WEST ATLANTA   MOSUNNY   69  52  54 SE8       29.89F
GAINESVILLE    MOSUNNY   69  54  58 E9        29.92F
CARTERSVILLE   SUNNY     70  54  56 E9        29.89F


CITY           SKY/WX    TMP DP  RH WIND       PRES   REMARKS
DALTON*        SUNNY     70  55  60 S7        29.89F
LAWRENCEVILLE* MOSUNNY   70  54  56 SE7       29.91F
MARIETTA       MOSUNNY   71  54  55 SE12G17   29.89F
KENNESAW*      MOSUNNY   70  61  73 E7        29.92R
CANTON*        SUNNY     68  48  49 E7        29.92F
$$

GAZ059>098-102>109-231800-
CENTRAL GEORGIA

CITY           SKY/WX    TMP DP  RH WIND       PRES   REMARKS
AUGUSTA-BUSH   MOSUNNY   76  55  48 E10       29.88F
AUGUSTA-DANIEL SUNNY     74  53  48 E10       29.89F
COLUMBUS       MOSUNNY   70  59  68 SE10      29.86F
MACON          PTSUNNY   72  60  66 E14       29.87F
ROBINS AFB     MOSUNNY   72  59  62 E9        29.86F


CITY           SKY/WX    TMP DP  RH WIND       PRES   REMARKS
LAGRANGE*      CLOUDY    68  63  84 E7        29.89F
SYLVANIA*      PTSUNNY  N/A N/A N/A E13       29.87F
MILLEDGEVILLE* MOSUNNY   73  61  64 E6        29.89F
$$

GAZ099>101-110>166-231800-
SOUTH GEORGIA

CITY           SKY/WX    TMP DP  RH WIND       PRES   REMARKS
SAVANNAH       PTSUNNY   74  60  61 NE14      29.84F
VALDOSTA       PTSUNNY   73  61  65 NE15      29.80F
ALMA           MOSUNNY   75  62  64 E9        29.82F
ST SIMONS      MOSUNNY   71  62  73 NE22      29.80F
FT STEWART     PTSUNNY   72  62  68 NE13      29.81F
ALBANY         PTSUNNY   74  61  63 NE12      29.86F
HUNTER AFB     MOSUNNY   74  66  75 E15G21    29.81F
MOODY AFB      PTSUNNY   73  60  65 NE13G18   29.79F
BRUNSWICK      MOSUNNY   73  66  78 NE15G22   29.82F


CITY           SKY/WX    TMP DP  RH WIND       PRES   REMARKS
BAINBRIDGE*    MOSUNNY   72  63  73 NE13      29.83F
MOULTRIE*      MOSUNNY   73  59  60 E6        29.83S
VIDALIA*       PTSUNNY   77  64  65 E15       29.85F
WAYCROSS*      MOSUNNY   78  67  68 E13G22    29.81F
DOUGLAS*       PTSUNNY   73  59  60 NE14G20   29.84F
$$



USA.gov is the U.S. government's official web portal to all federal, state and local government web resources and services.